www.pogodaiklimat.ru

Погода и климат >> Архив погоды >> Россия >> Приморский край >> Рудная Пристань


ПОГОДА в Рудной Пристани

  • Прогноз погоды в Рудной Пристани
  • Монитор погоды в Рудной Пристани
  • Климат города

АРХИВ ПОГОДЫ в Рудной Пристани

Время (UTC), дата Ветер
(напр.,м/с)
 
Видим.   Явления Облачность Т
(С)
Тd
(С)
f
(%)
Тe
(С)
Тes
(С)
Комфортность P
(гПа)
Po
(гПа)
Тmin
(С)
Tmax
(С)
R
(мм)
R24
(мм)
S
(см)
09 14.10 З 4
{10}
20 км 4/3 600 м
[Cb cap Ac lent]
+8.8 -4.7 38 +6 +6 1022.4 1018.2 +12.6
12 14.10 З 2 20 км ясно +4.4 -3.6 56 +2 +2 1024.5 1020.2
15 14.10 З 2 20 км ясно +4.1 -6.3 47 +2 +2 1025.2 1020.9
18 14.10 З 1 20 км ясно +1.5 -5.8 58 0 0 1026.0 1021.7
21 14.10 З 2 20 км 3/0
[Ci fib]
-2.5 -5.5 80 -6 -6 1027.2 1022.9 -2.6
00 15.10 З 3 20 км ясно +7.3 -4.4 43 +5 +8 1027.7 1023.4 -2.8
03 15.10 З 6-12
{13}
20 км 3/3 600 м
[Cb cap]
+12.5 -9.4 21 +11 +13 1025.7 1021.5
06 15.10 З 6-13
{15}
20 км 3/3 600 м
[Cb cap]
+12.3 -11.7 17 +10 +11 1025.5 1021.4
09 15.10 З 3
{13}
20 км ясно +8.5 -13.1 20 +7 +7 1027.4 1023.2 +13.0
12 15.10 З 2 20 км ясно +5.7 -12.3 26 +4 +4 1029.3 1025.0
15 15.10 З 2 20 км ясно -1.7 -8.6 59 -5 -5 1030.4 1026.0
18 15.10 З 1 20 км ясно -2.6 -9.0 61 -4 -4 1029.9 1025.5
21 15.10 З 2 20 км 8/0
[Ci]
-4.1 -8.2 73 -8 -8 1030.1 1025.7 -4.6
00 16.10 З 3 20 км 9/0
[Ac lent Ci sp]
+4.0 -7.4 43 +1 +3 1029.9 1025.6
03 16.10 ЮВ 5 20 км 3/0
[Ac lent Ci fib]
+8.3 -2.3 47 +5 +8 1027.2 1022.8
06 16.10 ЮЗ 1
{11}
20 км 6/6 600 м
[Cb cap]
+10.2 -1.3 45 +10 +12 1024.5 1020.3
09 16.10 СЗ 2 20 км 8/8 600 м
[Cb cap]
+8.3 +0.4 57 +7 +7 1024.8 1020.6 +11.0
12 16.10 З 1 20 км 3/3 600 м
[Cb cap]
+3.2 -3.3 62 +2 +2 1026.0 1021.7
15 16.10 З 1 20 км ясно -2.0 -4.7 82 -4 -4 1025.8 1021.4
18 16.10 З 2 20 км ясно -4.1 -5.6 89 -8 -8 1024.9 1020.5
21 16.10 З 3 20 км 4/3 600 м
[Sc Ci sp]
-4.1 -6.1 86 -9 -9 1023.4 1019.0 -4.3
00 17.10 З 2 20 км 4/0
[Ac lent Ci sp]
+1.7 -3.2 70 -1 +1 1021.8 1017.5 -4.7
03 17.10 З 7-17
{17}
20 км 6/6 600 м
[Cb cap]
+9.0 -5.2 36 +6 +6 1020.4 1016.2
06 17.10 З 5-10
{17}
20 км 3/3 600 м
[Cb cap]
+6.5 -8.5 33 +3 +4 1021.8 1017.6
09 17.10 З 7-15
{17}
20 км 3/3 600 м
[Cb cap]
+4.7 -7.6 40 -0 -0 1024.1 1019.8 +11.5
12 17.10 Ю 1
{15}
20 км 3/3 600 м
[Sc diur, vesp]
+4.4 -8.3 39 +4 +4 1026.0 1021.7
15 17.10 В 1 20 км ясно +3.3 -13.7 27 +3 +3 1028.1 1023.8
18 17.10 В 1 20 км ясно +0.5 -15.9 28 -0 -0 1029.0 1024.7
21 17.10 З 2 20 км ясно -6.0 -12.9 58 -10 -10 1029.6 1025.2 -6.0
00 18.10 ЮЗ 2 20 км ясно +1.6 -9.5 43 -1 +2 1030.4 1026.0 -6.4
03 18.10 ЮЗ 3 20 км ясно +9.1 -13.8 18 +8 +13 1028.1 1023.9
06 18.10 Ю 2 20 км ясно +10.1 -13.0 18 +10 +12 1026.3 1022.1
09 18.10 штиль 0 20 км 3/0
[Ac lent]
+4.9 -7.6 40 +5 +5 1026.6 1022.3 +10.8
12 18.10 З 2 20 км ясно -0.8 -6.2 67 -4 -4 1027.1 1022.8
15 18.10 З 2 20 км ясно -3.4 -8.6 67 -7 -7 1026.2 1021.8
18 18.10 З 3 20 км ясно -5.1 -10.1 68 -10 -10 1026.0 1021.6
21 18.10 З 4 20 км 8/8 600 м
[Sc]
-4.8 -9.7 69 -11 -11 1025.4 1021.0 -5.8
00 19.10 ЮЗ 3 20 км 3/3 600 м
[Sc]
+3.6 -9.7 37 +1 +2 1025.2 1021.0
03 19.10 В 2 20 км 9/9 600 м
[Sc]
+5.9 -2.6 54 +4 +5 1024.0 1019.7
06 19.10 В 2 20 км 10/3 600 м
[Sc Ci sp]
+7.7 -1.0 54 +6 +8 1022.2 1018.0
09 19.10 СВ 1 20 км 3/3 600 м
[Sc]
+5.3 +0.8 73 +4 +4 1022.1 1017.9 +7.9
12 19.10 З 1 20 км ясно +3.8 +1.1 83 +2 +2 1022.4 1018.1
15 19.10 З 2 20 км 10/3 600 м
[Sc Ci sp]
+2.5 -0.3 82 -1 -1 1022.8 1018.5
18 19.10 З 3 20 км 9/3 600 м
[Sc Ci sp]
+2.3 -0.2 84 -2 -2 1022.4 1018.1
21 19.10 З 1 20 км 10/4 600 м
[Cb cap Ac trans Ci sp]
+3.0 -0.1 80 +2 +2 1022.4 1018.1 +1.3
00 20.10 З 1 20 км 10/6 600 м
[Cb cap Ac lent Ci sp]
+5.3 +1.1 74 +4 +5 1022.8 1018.6
03 20.10 В 3 20 км 10/6 600 м
[Cb cap Ac lent Ci sp]
+8.3 +4.5 77 +6 +7 1022.2 1018.1
06 20.10 В 1 20 км {ливн. осадки} 10/8 600 м
[Cb cap Ac und]
+8.9 +5.2 78 +8 +9 1021.6 1017.4
09 20.10 штиль 0 20 км 10/8 600 м
[Cb cap Ac und]
+7.0 +5.9 93 +6 +6 1021.6 1017.4 +9.4 0.1
12 20.10 штиль 0 20 км в посл. час ливневой дождь 10/8 600 м
[Cb cap As op]
+7.1 +6.5 96 +6 +6 1021.6 1017.4
15 20.10 штиль 0 20 км 10/8 600 м
[Cb cap As op]
+6.9 +6.6 98 +6 +6 1021.6 1017.4
18 20.10 СЗ 1 20 км 6/6 600 м
[Cb cap]
+4.7 +4.5 99 +3 +3 1020.1 1015.8
21 20.10 З 2 500 м туман 3/3 600 м
[Cb cap]
+4.0 +4.0 100 +1 +1 1020.1 1015.9 +2.8 0.1
00 21.10 З 2 20 км {туман} 8/3 600 м
[Sc diur, vesp Ac trans Ci sp]
+6.7 +6.7 100 +4 +5 1020.2 1016.0
03 21.10 В 2 20 км 3/0
[Ac lent]
+10.0 +6.9 81 +9 +14 1018.4 1014.2
06 21.10 В 3 20 км 8/3 600 м
[Sc Ac trans Ci sp]
+12.5 +8.5 77 +11 +12 1016.6 1012.5

 

Местоположение метеостанции Рудная Пристань (Приморский край, Россия): широта 44.37 долгота 135.80 высота над уровнем моря 34 м.

В архиве по умолчанию представлена погода в Рудной Пристани за последнюю неделю. Архивные данные за месяц целиком и за предыдущие месяцы, начиная с января 2011 года, Вы можете получить, выбрав интересующий диапазон дат из раскрывающегося списка и нажав кнопку "Ввод!".

Внимание! Время в таблицах - всемирное. Для получения местного времени необходимо прибавить поправку, которая в Рудной Пристани равна 10 ч.

Смотрите также архив погоды в соседних городах и на ближайших метеорологических станциях:

Погода в Богополе (Приморский край, Россия) (35 км)
Погода в Кавалерово (Приморский край, Россия) (65 км)
Погода в Ольге (Приморский край, Россия) (80 км)
Погода в Тернее (Приморский край, Россия) (94 км)
Погода в Мельничном (Приморский край, Россия) (122 км)
Погода в Малой Кеме (Приморский край, Россия) (154 км)
Погода в Чугуевке (Приморский край, Россия) (161 км)
Погода в Малиново (Приморский край, Россия) (172 км)
Погода в Глубинном (Приморский край, Россия) (193 км)
Погода в Лазо (Приморский край, Россия) (193 км)

Пояснения к столбцам:

Ветер - указаны скорость ветра в м/с - средняя за 10 мин, порывы в срок и между сроками (в фигурных скобках) и направление, откуда дует ветер: С - северный, СВ - северо-восточный, В - восточный, ЮВ - юго-восточный, Ю - южный, ЮЗ - юго-западный, З - западный, СЗ - северо-западный.
Видимость - горизонтальная дальность видимости в метрах или километрах. При видимости от 1 до 10 км при отсутствии осадков обычно наблюдается дымка, при ухудшении видимости до 1 км и менее - туман. В сухую погоду видимость может ухудшаться дымом, пылью или мглою.
Явления - указаны атмосферные явления, наблюдавшиеся в срок или в последний час перед сроком; фигурными скобками обозначены явления, наблюдавшиеся между сроками (за 1-3 часа до срока); квадратными скобками обозначены град или гололедные отложения с указанием их диаметра в мм.
Облачность - указаны через наклонную черту общая и нижняя облачность в баллах и высота нижней границы облаков в метрах; квадратными скобками обозначены формы облаков: Ci - перистые, Cs - перисто-слоистые, Cc - перисто-кучевые, Ac - высококучевые, As - высокослоистые, Sc - слоисто-кучевые, Ns - слоисто-дождевые, Cu - кучевые, Cb - кучево-дождевые. Подробнее классификацию облаков см. в Атласе облаков (PDF).
T - Температура воздуха - температура, измеренная на высоте 2 м над землей.
Td - Температура точки росы - температура, при понижении до которой содержащийся в воздухе водяной пар достигнет насыщения.
f - Относительная влажность воздуха - влажноcть воздуха, измеренная на высоте 2 м над землей.
Te - Эффективная температура - температура, которую ощущает одетый по сезону человек в тени. Характеристика душности погоды. При расчете учитывается влияние влажности воздуха и скорости ветра на теплоощущения человека.
Tes - Эффективная температура на солнце - температура, которую ощущает человек, с поправкой на солнечный нагрев. Характеристика знойности погоды. Зависит от высоты солнца над горизонтом, облачности и скорости ветра. Ночью, в пасмурную погоду, а также при ветре 12 м/с и более поправка равна нулю.
P - Атмосферное давление - приведенное к уровню моря атмосферное давление.
Po - Атмосферное давление - измеренное на уровне метеостанции атмосферное давление.
Tmin - Минимальная температура - минимум температуры воздуха на высоте 2 м над землей.
Tmax - Максимальная температура - максимум температуры воздуха на высоте 2 м над землей.
R - Количество осадков - Количество выпавших осадков за период времени, мм. При наведении курсора мыши на число - период времени, за который выпало указанное количество осадков.
R24 - Количество осадков - Количество выпавших осадков за 24 часа, мм.
S - Снежный покров - Высота снежного покрова, см. При наведении курсора мыши на число - состояние снежного покрова и степень покрытия местности в баллах.